This demonstration page uses our WeatherBlox Daily Observations layout. Learn more.

Left ArrowRight Arrow

Hourly Observations for October 4, 2021

Temp ( °F °C ) Dew Point ( °F °C ) Humidity (%) Winds ( mph kmh ) Pressure ( in mb ) Visibility ( mi km ) Precip ( " mm )
12:53 am 00:53 Clear 54 12.2 45 7.2 72 72 N N/A 30.05 1018 10 16 N/A
1:53 am 01:53 Clear 55 12.8 43 6.1 64 64 SW 5 7 30.05 1018 10 16 N/A
2:53 am 02:53 Clear 54 12.2 44 6.7 69 69 SW 5 7 30.05 1018 10 16 N/A
3:53 am 03:53 Clear 54 12.2 44 6.7 69 69 SW 3 6 30.04 1017 10 16 N/A
4:53 am 04:53 Clear 52 11.1 43 6.1 72 72 N N/A 30.05 1018 10 16 N/A
5:53 am 05:53 Clear 47 8.3 42 5.6 83 83 N N/A 30.07 1018 10 16 N/A
6:53 am 06:53 Clear 47 8.3 42 5.6 83 83 N N/A 30.08 1019 10 16 N/A
7:53 am 07:53 Sunny 47 8.3 43 6.1 86 86 N N/A 30.10 1019 10 16 N/A
8:53 am 08:53 Sunny 54 12.2 47 8.3 77 77 N N/A 30.11 1020 10 16 N/A
9:53 am 09:53 Sunny 64 17.8 48 8.9 56 56 VRB 3 6 30.11 1020 10 16 N/A
10:53 am 10:53 Sunny 74 23.3 45 7.2 36 36 VRB 5 7 30.11 1020 10 16 N/A
11:53 am 11:53 Sunny 77 25 43 6.1 30 30 NNE 7 11 30.11 1020 10 16 N/A
12:53 pm 12:53 Sunny 80 26.7 43 6.1 27 27 NE 9 15 30.10 1019 10 16 N/A
1:53 pm 13:53 Sunny 82 27.8 37 2.8 20 20 E 8 13 30.09 1019 10 16 N/A
2:53 pm 14:53 Sunny 83 28.3 36 2.2 19 19 E 9 15 30.07 1018 10 16 N/A
3:53 pm 15:53 Sunny 83 28.3 36 2.2 19 19 ENE 10 17 30.07 1018 10 16 N/A
4:53 pm 16:53 Sunny 82 27.8 36 2.2 19 19 NNE 14 22 30.07 1018 10 16 N/A
5:53 pm 17:53 Sunny 80 26.7 35 1.7 20 20 NE 13 20 30.09 1019 10 16 N/A
6:53 pm 18:53 Sunny 73 22.8 37 2.8 27 27 ENE 6 9 30.10 1019 10 16 N/A
7:53 pm 19:53 Clear 64 17.8 36 2.2 35 35 undefined N/A 30.12 1020 10 16 N/A
8:53 pm 20:53 Clear 59 15 38 3.3 46 46 E 5 7 30.14 1021 10 16 N/A
9:53 pm 21:53 Clear 56 13.3 39 3.9 53 53 E 3 6 30.14 1021 10 16 N/A
10:53 pm 22:53 Clear 53 11.7 40 4.4 61 61 N N/A 30.15 1021 10 16 N/A
11:53 pm 23:53 Clear 52 11.1 41 5 66 66 N N/A 30.15 1021 10 16 N/A

Powered by AerisWeather